This is the latest recevied weather packets stored in our database for station/object WX1NWA. If no packets are shown the sender has not sent any weather packets the latest 10 day(s).
| Time | Temp. | Humidity | Pressure | Rain* | Wind** | Luminosity | Snow |
|---|---|---|---|---|---|---|---|
| 1777420177 | 16.11° C | 99% | 1014.4 hPa | 13.21 mm | - | 1 W/m² | - |
| 1777419872 | 16.67° C | 99% | 1014.8 hPa | 21.59 mm | - | 0 W/m² | - |
| 1777419570 | 17.78° C | 99% | 1014.3 hPa | 32.51 mm | - | 0 W/m² | - |
| 1777419268 | 17.78° C | 99% | 1014.6 hPa | 39.62 mm | - | 0 W/m² | - |
| 1777418966 | 18.33° C | 99% | 1014.6 hPa | 24.64 mm | - | 0 W/m² | - |
| 1777418661 | 18.89° C | 99% | 1013.7 hPa | 10.67 mm | - | 0 W/m² | - |
| 1777418358 | 18.89° C | 99% | 1014.7 hPa | 4.83 mm | - | 0 W/m² | - |
| 1777418053 | 19.44° C | 99% | 1014.7 hPa | 1.78 mm | - | 0 W/m² | - |
| 1777417749 | 19.44° C | 99% | 1014.1 hPa | 0 mm | - | 0 W/m² | - |
| 1777417445 | 19.44° C | 99% | 1013.6 hPa | 0 mm | - | 0 W/m² | - |
| 1777417142 | 19.44° C | 99% | 1013.9 hPa | 0 mm | - | 0 W/m² | - |
| 1777416837 | 19.44° C | 99% | 1013.3 hPa | 0 mm | - | 1 W/m² | - |
| 1777416533 | 19.44° C | 99% | 1013.2 hPa | 0 mm | - | 0 W/m² | - |
| 1777416230 | 19.44° C | 99% | 1013.2 hPa | 0 mm | - | 1 W/m² | - |
| 1777415929 | 19.44° C | 99% | 1013.3 hPa | 0 mm | - | 3 W/m² | - |
| 1777415625 | 20° C | 99% | 1013.3 hPa | 0 mm | - | 4 W/m² | - |
| 1777415320 | 20° C | 99% | 1012.8 hPa | 0 mm | - | 6 W/m² | - |
| 1777415016 | 20° C | 99% | 1013.3 hPa | 0 mm | - | 6 W/m² | - |
| 1777414714 | 20.56° C | 98% | 1012.8 hPa | 0 mm | - | 17 W/m² | - |
| 1777414411 | 20.56° C | 98% | 1012.8 hPa | 0 mm | - | 24 W/m² | - |
| 1777414110 | 20.56° C | 97% | 1013 hPa | 0 mm | - | 29 W/m² | - |
| 1777413806 | 21.11° C | 96% | 1013.6 hPa | 0 mm | - | 70 W/m² | - |
| 1777413501 | 21.11° C | 96% | 1013.7 hPa | 0 mm | - | 89 W/m² | - |
| 1777413198 | 21.11° C | 97% | 1013.6 hPa | 0 mm | - | 107 W/m² | - |
| 1777412893 | 21.11° C | 96% | 1013.9 hPa | 0 mm | - | 187 W/m² | - |
* Rain latest hour (hover to see other rain measurements)
** Current wind speed in m/s (hover to see current wind gust speed)